[[{"header":{"parameterUnit":"m.s-1","parameterCategory":1,"la1":30.2991,"la2":30.254,"lo1":-89.0895,"lo2":-89.0444,"dy":0.0017,"dx":0.0017,"nx":28,"ny":28,"refTime":"2023-06-18T21:00:00:Z","depth":0,"parameterNumber":2,"parameterNumberName":"U-component_of_WINDS"},"data":[0,0,0,0,0,0,0,0,0,0,0,0,0,0,0,0,0,0,0,0,0,0,0,0,0,0,0,0,0,0,0,0,0,0,0,0,0,0,0,0,0,0,0,0,0,0,0,0,0,0,0,0,0,0,0,0,0,0,3.3766,3.3767,0,3.3803,3.3803,3.3804,3.3752,3.375,3.3748,3.3746,3.3786,3.3789,3.3791,0,0,0,0,0,0,0,0,0,0,0,0,0,3.3656,3.3659,3.3766,3.3767,3.3767,3.3803,3.3803,3.3804,3.3752,3.375,3.3748,3.3746,3.3785,3.3788,3.3792,0,0,0,0,0,0,0,0,0,0,0,0,0,3.37,3.3659,3.3766,3.3746,3.3744,3.3803,3.3803,3.3804,3.3753,3.375,3.3747,3.3745,3.3784,3.3788,3.3792,3.3873,0,0,3.3805,3.3806,0,0,0,0,0,0,0,0,3.3697,3.3704,3.3748,3.3747,3.3746,3.377,3.3779,3.3827,3.3753,3.375,3.3746,3.3743,3.3783,3.3787,3.38,3.3875,3.3876,3.3805,3.3808,3.3809,3.3811,0,0,0,0,0,0,0,3.3694,3.3702,3.3781,3.3749,3.3748,3.3736,3.3739,3.3788,3.3781,3.375,3.3746,3.3751,3.3782,3.3796,3.38,3.3877,3.3805,3.3809,3.3811,3.3813,3.4022,3.4025,0,0,0,0,0,0,3.3693,3.37,3.378,3.3782,3.3714,3.374,3.3744,3.3765,3.3781,3.378,3.3753,3.3748,3.379,3.3796,3.3802,3.3898,3.3809,3.3813,3.3816,3.4019,3.4023,3.4026,0,0,0,0,0,0,3.3691,3.3701,3.3778,3.374,3.3749,3.3745,3.3769,3.3767,3.3781,3.3783,3.3782,3.3769,3.3788,3.3796,3.3856,3.3898,3.3815,3.3819,3.4016,3.402,3.4025,3.409,0,0,0,0,0,0,3.3688,3.37,3.373,3.3741,3.3751,3.383,3.3772,3.377,3.3788,3.3782,3.3798,3.3797,3.3787,3.385,3.386,3.3903,3.3822,3.4012,3.4018,3.4023,3.4084,3.4097,3.4107,0,0,0,0,0,3.3684,3.3747,3.3731,3.3741,3.3787,3.3833,3.3839,3.3825,3.3792,3.3822,3.3824,3.3797,3.3893,3.3857,3.3867,3.3912,3.4009,3.4016,3.4023,3.4079,3.4094,3.4107,0,0,0,0,0,0,3.374,3.3748,3.3731,3.3798,3.3815,3.3824,3.3861,3.3841,3.3868,3.3861,3.3843,3.3847,3.3912,3.3918,3.3878,3.3992,3.3946,3.3955,3.3985,3.3999,3.401,3.4007,3.3826,0,0,0,0,0,3.376,3.3796,3.3801,3.386,3.387,3.3865,3.3884,3.3872,3.3889,3.3896,3.3902,3.3921,3.3955,3.3978,3.401,3.4086,3.4089,3.4123,3.4134,3.4144,3.4151,3.4194,3.4209,3.4049,3.4049,3.4049,0,0,3.3802,3.3811,3.3834,3.3872,3.3883,3.3922,3.3871,3.3913,3.3941,3.3903,3.3959,3.3965,3.3985,3.4054,3.4085,3.4061,3.4197,3.4152,3.416,3.4162,3.4202,3.4217,3.4231,3.4054,3.4053,3.4052,0,0,3.3897,3.3907,3.3958,3.3972,3.3991,3.3988,3.4001,3.4013,3.4015,3.4072,3.4045,3.408,3.4139,3.4155,3.417,3.4277,3.4253,3.4288,3.4347,3.4388,3.4401,3.4412,3.445,3.4463,3.4296,3.4296,3.4297,0,3.3946,3.4002,3.3987,3.4032,3.405,3.4018,3.407,3.4085,3.4113,3.4127,3.4101,3.4177,3.4188,3.426,3.4287,3.4301,3.4315,3.4284,3.44,3.4411,3.4421,3.4457,3.4471,3.43,3.43,3.43,3.4299,0,3.4062,3.4102,3.4141,3.4169,3.4193,3.4241,3.4235,3.4261,3.4248,3.4249,3.4308,3.4321,3.4356,3.4373,3.4361,3.4445,3.443,3.4403,3.4355,3.4441,3.4474,3.4488,3.4306,3.4305,3.4304,3.4303,0,0,3.4189,3.4212,3.4226,3.424,3.4261,3.4291,3.434,3.4374,3.4396,3.4419,3.4459,3.4513,3.4488,3.4506,3.4497,3.4533,3.4617,3.4502,3.4502,3.4522,3.4712,3.4731,3.4747,3.4603,3.4606,3.4608,3.471,0,3.4284,3.4366,3.4356,3.4436,3.4473,3.4445,3.4488,3.4506,3.4509,3.4542,3.4546,3.4583,3.4548,3.4559,3.4595,3.46,3.4655,3.4592,3.4641,3.4643,3.4634,3.4764,3.4784,3.4879,3.4723,3.4725,3.4727,0,3.4404,3.4431,3.4514,3.4532,3.4547,3.4585,3.4617,3.4649,3.467,3.467,3.4692,3.4677,3.4727,3.4681,3.4751,3.4709,3.4729,3.4735,3.4739,3.4741,3.4688,3.4769,3.4909,3.4923,3.4747,3.4745,3.4744,0,3.4487,3.4545,3.4603,3.4616,3.4637,3.4665,3.4676,3.4695,3.4717,3.4745,3.476,3.4794,3.4813,3.484,3.4836,3.4802,3.4908,3.4861,3.4909,3.4909,3.493,3.4928,3.5074,3.4946,3.4946,3.4946,3.4945,0,3.4593,3.4645,3.4641,3.4676,3.4734,3.4724,3.4783,3.479,3.4808,3.4845,3.4825,3.4861,3.4853,3.4889,3.4886,3.4945,3.4954,3.4956,3.4954,3.4956,3.4956,3.4967,3.496,3.4949,3.4949,3.4948,3.4947,0,3.4694,3.4694,3.4755,3.4772,3.4778,3.482,3.4835,3.4869,3.4872,3.492,3.493,3.4935,3.4977,3.4976,3.5023,3.5021,3.5093,3.5085,3.5086,3.5083,3.5131,3.5126,3.5288,3.5308,3.5169,3.517,3.5171,0,3.476,3.48,3.4822,3.4845,3.4858,3.4896,3.4919,3.4912,3.4937,3.4967,3.4998,3.5038,3.5069,3.5138,3.5146,3.5183,3.5174,3.5229,3.5179,3.5181,3.5174,3.5171,3.5175,3.5237,3.5239,3.524,3.5241,0,3.4878,3.4876,3.4909,3.4944,3.4972,3.4999,3.5023,3.5044,3.5041,3.507,3.5113,3.5137,3.5187,3.5227,3.5263,3.5276,3.5258,3.5257,3.527,3.5271,3.527,3.5271,3.511,3.5252,3.5251,3.525,3.525,3.5249,3.4963,3.4997,3.5019,3.5057,3.5076,3.51,3.5133,3.5141,3.5176,3.5216,3.5211,3.5259,3.5282,3.5329,3.5345,3.5383,3.5364,3.5383,3.5388,3.5392,3.5397,3.5266,3.539,3.539,3.539,3.5389,3.5389,0,3.5078,3.5091,3.5127,3.5163,3.5194,3.5177,3.5204,3.5231,3.5273,3.5297,3.5329,3.5379,3.5419,3.5432,3.5471,3.5499,3.5492,3.551,3.5506,3.551,3.5412,3.5396,3.5515,3.5515,3.5515,3.5515,3.5515,3.5515,3.5141,3.5199,3.5201,3.5269,3.5282,3.5329,3.5346,3.5369,3.5388,3.5445,3.5478,3.5486,3.5506,3.5547,3.5584,3.5587,3.5601,3.5622,3.5621,3.5529,3.5516,3.5504,3.5489,3.5625,3.5626,3.5715,3.5716,3.5717]},{"header":{"parameterUnit":"m.s-1","parameterCategory":1,"la1":30.2991,"la2":30.254,"lo1":-89.0895,"lo2":-89.0444,"dy":0.0017,"dx":0.0017,"nx":28,"ny":28,"refTime":"2023-06-18T21:00:00:Z","depth":0,"parameterNumber":3,"parameterNumberName":"V-component_of_WINDS"},"data":[0,0,0,0,0,0,0,0,0,0,0,0,0,0,0,0,0,0,0,0,0,0,0,0,0,0,0,0,0,0,0,0,0,0,0,0,0,0,0,0,0,0,0,0,0,0,0,0,0,0,0,0,0,0,0,0,0,0,2.1657,2.1656,0,2.1618,2.1618,2.1617,2.1552,2.1551,2.155,2.1548,2.151,2.1511,2.1511,0,0,0,0,0,0,0,0,0,0,0,0,0,2.1677,2.1677,2.1657,2.1656,2.1656,2.1618,2.1618,2.1617,2.1552,2.1551,2.1549,2.1548,2.151,2.1511,2.1511,0,0,0,0,0,0,0,0,0,0,0,0,0,2.1657,2.1677,2.1657,2.1619,2.1615,2.1618,2.1618,2.1617,2.1553,2.1551,2.1549,2.1547,2.151,2.1511,2.1511,2.1548,0,0,2.1511,2.1511,0,0,0,0,0,0,0,0,2.1658,2.1656,2.1625,2.1622,2.1617,2.1588,2.1611,2.1594,2.1553,2.1576,2.1548,2.1546,2.1538,2.1536,2.1532,2.1546,2.1545,2.1511,2.1511,2.1511,2.1512,0,0,0,0,0,0,0,2.1659,2.1657,2.1642,2.1625,2.162,2.1605,2.16,2.1607,2.1568,2.1574,2.1569,2.1566,2.1535,2.1532,2.1531,2.1544,2.1511,2.1511,2.1512,2.1512,2.1587,2.1589,0,0,0,0,0,0,2.1666,2.1659,2.1643,2.164,2.1633,2.1606,2.16,2.1599,2.1568,2.1561,2.1567,2.1563,2.1533,2.1531,2.1529,2.157,2.1511,2.1512,2.1512,2.1585,2.1587,2.159,0,0,0,0,0,0,2.1667,2.1665,2.1644,2.1648,2.1644,2.1607,2.1607,2.16,2.1596,2.1562,2.1555,2.1571,2.1531,2.1529,2.1544,2.1568,2.1512,2.1512,2.1583,2.1586,2.1589,2.1653,0,0,0,0,0,0,2.1668,2.1666,2.1679,2.1649,2.1645,2.1659,2.1608,2.16,2.1597,2.159,2.1564,2.1558,2.153,2.1544,2.1544,2.1567,2.1512,2.1581,2.1584,2.1588,2.1648,2.1657,2.1665,0,0,0,0,0,2.1669,2.1699,2.168,2.1678,2.166,2.166,2.1658,2.1624,2.1599,2.1612,2.159,2.1559,2.1566,2.1546,2.1546,2.1569,2.1579,2.1583,2.1587,2.1644,2.1656,2.1665,0,0,0,0,0,0,2.1733,2.1694,2.1673,2.1694,2.1681,2.1649,2.1664,2.1637,2.1631,2.1626,2.1585,2.158,2.16,2.1586,2.1565,2.1604,2.1568,2.1572,2.1611,2.1621,2.163,2.1631,2.1512,0,0,0,0,0,2.175,2.1752,2.1719,2.1741,2.1736,2.1702,2.1701,2.1676,2.1661,2.1655,2.1634,2.1621,2.1621,2.1621,2.1618,2.1647,2.164,2.1663,2.1672,2.1679,2.1683,2.1696,2.1706,2.1604,2.1604,2.1603,0,0,2.1784,2.1763,2.1767,2.1754,2.174,2.1745,2.1697,2.1704,2.1706,2.1656,2.1668,2.1653,2.1636,2.1658,2.1666,2.1647,2.171,2.1685,2.1691,2.169,2.1702,2.1711,2.172,2.1606,2.1606,2.1605,0,0,2.1848,2.1833,2.185,2.1838,2.1818,2.1796,2.18,2.1773,2.1761,2.1772,2.1734,2.1738,2.1738,2.1727,2.1721,2.1784,2.1754,2.1785,2.1828,2.1842,2.185,2.1857,2.1877,2.1886,2.1789,2.1789,2.1789,0,2.1893,2.1897,2.1862,2.187,2.1865,2.1821,2.1837,2.1828,2.1809,2.1807,2.1786,2.1785,2.177,2.1788,2.1804,2.1802,2.1805,2.1786,2.1851,2.1858,2.1864,2.1883,2.1891,2.1792,2.1792,2.1792,2.1791,0,2.1952,2.1956,2.1972,2.1954,2.1952,2.1964,2.1932,2.1934,2.1911,2.1891,2.1903,2.1885,2.1877,2.1881,2.1858,2.1896,2.1885,2.1859,2.1821,2.1878,2.1895,2.1903,2.1798,2.1796,2.1795,2.1794,0,0,2.2052,2.2017,2.2023,2.2014,2.1991,2.1993,2.2005,2.1997,2.1999,2.1989,2.1997,2.1999,2.1975,2.1969,2.1945,2.1958,2.2007,2.193,2.1929,2.1943,2.2046,2.2064,2.2074,2.1989,2.199,2.1991,2.2047,0,2.2109,2.2125,2.2095,2.2119,2.2121,2.2081,2.2091,2.2078,2.2061,2.2061,2.2042,2.2043,2.2012,2.2008,2.2019,2.1999,2.2027,2.1995,2.1995,2.1996,2.1998,2.2083,2.2102,2.2155,2.2054,2.2055,2.2056,0,2.2177,2.217,2.2193,2.2169,2.2169,2.2178,2.2169,2.2171,2.2156,2.2143,2.2137,2.2109,2.212,2.2086,2.2099,2.2078,2.2077,2.2068,2.2069,2.2066,2.2027,2.208,2.2172,2.2179,2.2067,2.2066,2.2065,0,2.2245,2.2242,2.2255,2.2249,2.2222,2.2229,2.2218,2.2202,2.22,2.2193,2.2191,2.2186,2.2183,2.218,2.2152,2.213,2.2169,2.2132,2.2157,2.2158,2.2164,2.2164,2.2256,2.2168,2.2168,2.2168,2.2168,0,2.231,2.2326,2.2285,2.2293,2.231,2.2276,2.2294,2.2279,2.2265,2.227,2.2236,2.2242,2.2206,2.2208,2.2187,2.22,2.22,2.2189,2.2183,2.219,2.2192,2.2187,2.2182,2.217,2.217,2.2169,2.2169,0,2.2387,2.2361,2.2372,2.2346,2.234,2.2353,2.2331,2.2338,2.2319,2.2326,2.2326,2.2297,2.2297,2.227,2.2266,2.2252,2.2274,2.2262,2.2278,2.2274,2.2299,2.2297,2.2389,2.2399,2.2308,2.2309,2.231,0,2.2429,2.244,2.2415,2.2416,2.2406,2.2408,2.2406,2.2375,2.2374,2.2359,2.2368,2.2366,2.2362,2.2365,2.2344,2.234,2.2327,2.236,2.2326,2.2334,2.2325,2.2324,2.2325,2.2366,2.2367,2.2368,2.2369,0,2.2505,2.2492,2.249,2.2483,2.2482,2.2475,2.2467,2.247,2.2435,2.2437,2.2437,2.2434,2.243,2.2428,2.2421,2.241,2.2384,2.238,2.2385,2.2392,2.24,2.2395,2.2295,2.2377,2.2377,2.2376,2.2376,2.2375,2.2564,2.2572,2.2556,2.2555,2.2546,2.2539,2.2544,2.2526,2.2526,2.2519,2.2502,2.2505,2.2491,2.2479,2.2471,2.2474,2.2457,2.2465,2.2467,2.2469,2.2473,2.2403,2.2473,2.2472,2.2472,2.2472,2.2472,0,2.2637,2.2625,2.2625,2.2614,2.2614,2.259,2.258,2.2581,2.2584,2.2574,2.2571,2.2572,2.2571,2.255,2.2547,2.2553,2.2541,2.2553,2.2551,2.2549,2.2488,2.2483,2.2563,2.2563,2.2563,2.2563,2.2563,2.2562,2.2675,2.2686,2.2672,2.2679,2.2668,2.267,2.2666,2.266,2.2652,2.2654,2.2652,2.2639,2.2625,2.2621,2.2619,2.2613,2.2613,2.2628,2.2619,2.2562,2.2553,2.2544,2.2539,2.2629,2.2629,2.2678,2.2679,2.2679]}]]